www.pogodaiklimat.ru

Погода и климат >> Архив погоды >> Сирия >> Латакия


ПОГОДА в Латакии

  • Прогноз погоды в Латакии
  • Монитор погоды в Латакии

АРХИВ ПОГОДЫ в Латакии

Время (UTC), дата Ветер
(напр.,м/с)
 
Видим.   Явления Облачность Т
(С)
Тd
(С)
f
(%)
Тe
(С)
Тes
(С)
Комфортность P
(гПа)
Po
(гПа)
Тmin
(С)
Tmax
(С)
R
(мм)
R24
(мм)
S
(см)
03 18.03 ЮВ 7 15 км ясно +16.2 +13.8 86 +15 +15 1017.5 1016.7
06 18.03 ЮВ 9 15 км {дождь} 5/5 900 м
[Cu med, cong]
+17.0 0.0 32 +16 +16 1019.5 1018.7 +15.6 0.2
09 18.03 ЮВ 7 15 км 3/3 900 м
[Cu med, cong]
+18.0 +13.9 77 +17 +20 1019.8 1019.0
12 18.03 Ю 3 15 км 3/3 900 м
[Cu med, cong]
+19.2 0.0 27 +20 +25 1019.3 1018.5
15 18.03 В 2 15 км 5/5 900 м
[Cu med, cong]
+17.4 +13.9 80 +18 +18 1019.1 1018.3
03 19.03 штиль 0 15 км ясно +11.8 +9.9 88 +11 +11 1018.3 1017.4
06 19.03 штиль 0 15 км ясно +13.8 0.0 39 +14 +21 1019.0 1018.2 +11.8
09 19.03 штиль 0 15 км 1/1 900 м
[Cu hum]
+19.6 +14.0 70 +21 +39 комфорт 1018.2 1017.4
12 19.03 ЮЗ 3 15 км 3/3 960 м
[Sc diur, vesp]
+18.2 0.0 29 +18 +24 1016.6 1015.8
15 19.03 З 1 15 км 4/3 900 м
[Cu med, cong Ci fib]
+17.4 +13.5 78 +18 +19 1016.2 1015.4
18 19.03 штиль 0 15 км ясно +15.4 0.0 35 +15 +15 1017.3 1016.5 +19.6
00 20.03 штиль 0 15 км ясно +12.6 0.0 42 +13 +13 1016.3 1015.4
09 20.03 З 1 15 км ясно +22.2 +11.1 49 +24 +41 комфорт 1016.7 1015.9
12 20.03 З 2 15 км 8/0
[Ci sp]
+21.8 +10.1 47 +23 +32 комфорт 1015.4 1014.6
15 20.03 СЗ 1 15 км 8/0
[Ci sp]
+19.6 +11.2 58 +22 +22 комфорт 1014.5 1013.7
18 20.03 СЗ 1 15 км 4/0
[Ci fib]
+16.4 0.0 33 +17 +17 1015.5 1014.7 +22.4
21 20.03 штиль 0 15 км 5/0
[Ci fib]
+13.8 +8.7 71 +14 +14 1015.5 1014.7
00 21.03 С 1 15 км 6/0
[Ci fib]
+14.0 0.0 38 +15 +15 1015.0 1014.2
03 21.03 штиль 0 15 км 4/0
[Ci fib]
+12.0 +7.5 74 +12 +12 1014.5 1013.6
06 21.03 штиль 0 15 км 8/0
[Ci sp]
+15.2 0.0 35 +15 +21 1015.2 1014.4 +11.4
09 21.03 штиль 0 15 км 6/0
[Ci sp]
+20.5 +9.9 51 +22 +39 комфорт 1015.2 1014.4
12 21.03 СЗ 2 15 км 6/0
[Ci sp]
+23.4 0.0 21 +22 +31 комфорт 1014.1 1013.3
15 21.03 СЗ 2 15 км 4/4 900 м
[Cu med, cong]
+19.4 +13.5 69 +21 +22 комфорт 1013.8 1013.0
18 21.03 штиль 0 15 км ясно +16.6 0.0 32 +17 +17 1014.7 1013.9 +23.6
21 21.03 штиль 0 15 км ясно +14.4 +13.8 96 +14 +14 1015.4 1014.6
03 22.03 штиль 0 15 км ясно +14.2 +10.8 80 +14 +14 1015.1 1014.3
06 22.03 штиль 0 15 км 6/0
[Ci sp]
+15.6 0.0 34 +16 +22 1016.0 1015.2 +15.5
09 22.03 ЮВ 1 15 км 4/0
[Ci fib]
+19.1 +14.0 72 +21 +38 комфорт 1016.3 1015.5
15 22.03 ЮВ 1 15 км 4/4 900 м
[Cu med, cong]
+18.5 +14.2 76 +20 +21 1015.2 1014.4
18 22.03 штиль 0 15 км ясно +16.6 +13.5 82 +16 +16 1015.5 1014.7 +22.0
00 23.03 штиль 0 15 км ясно +13.7 +13.0 96 +13 +13 1015.0 1014.2
06 23.03 штиль 0 15 км ясно +15.0 0.0 36 +15 +22 1013.8 1013.0 +12.0
09 23.03 штиль 0 15 км ясно +18.6 +14.5 77 +19 +40 опасность
простуды
1013.3 1012.5
15 23.03 штиль 0 15 км 5/5 900 м
[Cu med, cong]
+18.6 +15.3 81 +19 +20 1010.8 1010.0
18 23.03 В 4 15 км ясно +16.6 1009.8 1009.0 +21.4
21 23.03 штиль 0 15 км 4/4 900 м
[Cu med, cong]
+16.4 +13.3 82 +16 +16 1008.7 1007.9
00 24.03 штиль 0 15 км 5/0
[Ci sp]
+13.8 0.0 39 +14 +14 1007.3 1006.5
03 24.03 штиль 0 15 км 6/0
[Ci sp]
+11.2 +9.0 86 +11 +11 1004.8 1004.0
06 24.03 штиль 0 15 км 6/4 900 м
[Cu med, cong Ci sp]
+13.0 0.0 41 +13 +17 1003.2 1002.4 +10.8
09 24.03 С 4 15 км 3/3 900 м
[Cu med, cong]
+18.0 +10.6 62 +18 +25 1002.3 1001.5

 

Местоположение метеостанции Латакия (Сирия): широта 35.53 долгота 35.77 высота над уровнем моря 7 м.

В архиве по умолчанию представлена погода в Латакии за последнюю неделю. Архивные данные за месяц целиком и за предыдущие месяцы, начиная с января 2011 года, Вы можете получить, выбрав интересующий диапазон дат из раскрывающегося списка и нажав кнопку "Ввод!".


*Определитесь, кто Вы:
робот инопланетянин человек

Внимание! Время в таблицах - всемирное. Для получения местного времени необходимо прибавить поправку, которая равна 2 ч.

Смотрите также архив погоды в соседних городах и на ближайших метеорологических станциях:

Погода в Аэропорту Басиля Эль-Асада (Сирия) (20 км)
Погода в Сафире (Сирия) (85 км)
Погода в Хаме (Сирия) (100 км)
Погода в Триполи (Ливан) (121 км)
Погода в Искендеруне (Турция) (122 км)
Погода в Ризокарпасо (Кипр) (126 км)
Погода в Алеппо (Сирия) (148 км)
Погода в Гиалусе (Кипр) (158 км)
Погода в Инджирлике (Турция) (166 км)
Погода в Адане (Турция) (167 км)

Пояснения к столбцам:

Ветер - указаны скорость ветра в м/с - средняя за 10 мин, порывы в срок и между сроками (в фигурных скобках) и направление, откуда дует ветер: С - северный, СВ - северо-восточный, В - восточный, ЮВ - юго-восточный, Ю - южный, ЮЗ - юго-западный, З - западный, СЗ - северо-западный.
Видимость - горизонтальная дальность видимости в метрах или километрах. При видимости от 1 до 10 км при отсутствии осадков обычно наблюдается дымка, при ухудшении видимости до 1 км и менее - туман. В сухую погоду видимость может ухудшаться дымом, пылью или мглою.
Явления - указаны атмосферные явления, наблюдавшиеся в срок или в последний час перед сроком; фигурными скобками обозначены явления, наблюдавшиеся между сроками (за 1-3 часа до срока); квадратными скобками обозначены град или гололедные отложения с указанием их диаметра в мм.
Облачность - указаны через наклонную черту общая и нижняя облачность в баллах и высота нижней границы облаков в метрах; квадратными скобками обозначены формы облаков: Ci - перистые, Cs - перисто-слоистые, Cc - перисто-кучевые, Ac - высококучевые, As - высокослоистые, Sc - слоисто-кучевые, Ns - слоисто-дождевые, Cu - кучевые, Cb - кучево-дождевые. Подробнее классификацию облаков см. в Атласе облаков (PDF).
T - Температура воздуха - температура, измеренная на высоте 2 м над землей.
Td - Температура точки росы - температура, при понижении до которой содержащийся в воздухе водяной пар достигнет насыщения.
f - Относительная влажность воздуха - влажноcть воздуха, измеренная на высоте 2 м над землей.
Te - Эффективная температура - температура, которую ощущает одетый по сезону человек в тени. Характеристика душности погоды. При расчете учитывается влияние влажности воздуха и скорости ветра на теплоощущения человека.
Tes - Эффективная температура на солнце - температура, которую ощущает человек, с поправкой на солнечный нагрев. Характеристика знойности погоды. Зависит от высоты солнца над горизонтом, облачности и скорости ветра. Ночью, в пасмурную погоду, а также при ветре 12 м/с и более поправка равна нулю.
P - Атмосферное давление - приведенное к уровню моря атмосферное давление.
Po - Атмосферное давление - измеренное на уровне метеостанции атмосферное давление.
Tmin - Минимальная температура - минимум температуры воздуха на высоте 2 м над землей.
Tmax - Максимальная температура - максимум температуры воздуха на высоте 2 м над землей.
R - Количество осадков - Количество выпавших осадков за период времени, мм. При наведении курсора мыши на число - период времени, за который выпало указанное количество осадков.
R24 - Количество осадков - Количество выпавших осадков за 24 часа, мм.
S - Снежный покров - Высота снежного покрова, см. При наведении курсора мыши на число - состояние снежного покрова и степень покрытия местности в баллах.